Regional Weather Roundup
Issued by NWS Wakefield, VA

Home | Current Version | Previous Version | Graphics & Text | Print | Product List | Glossary On
Versions: 1 2 3 4 5 6 7 8 9 10 11 12 13 14 15 16 17 18 19 20 21 22 23 24 25 26 27 28 29 30 31 32 33 34 35 36 37 38 39 40 41 42 43 44 45 46 47 48 49 50
000
ASUS41 KAKQ 202310
RWRAKQ

REGIONAL WEATHER ROUNDUP
NATIONAL WEATHER SERVICE WAKEFIELD VA
700 PM EDT SAT SEP 20 2014

Note: "fair" indicates few or no clouds below 12,000 feet with no
significant weather and/or obstructions to visibility. * = Denotes
station may not report precipitation (e.g., rain,snow,etc.),
thunder or fog.

VAZ042-051-052>054-056-210000-
NORTHERN VIRGINIA

CITY           SKY/WX    TMP DP  RH WIND       PRES   REMARKS
WASH NATIONAL  PTCLDY    78  55  44 SE6       30.07F
DULLES         PTCLDY    73  57  57 S7        30.06F
FORT BELVOIR   CLEAR     71  63  74 SE2       30.07F
QUANTICO       CLEAR     75  58  55 S9        30.07F
FREDERICKSBRG* CLEAR     76  58  52 E6        30.05F
STAFFORD*      CLEAR     72  58  61 E5        30.10F
WARRENTON      CLEAR     74  64  71 E6        30.06F
CULPEPER*      CLEAR     75  59  57 E3        30.07S
MANASSAS*      CLEAR     72  61  68 SE5       30.07F
LEESBURG*      CLEAR     77  59  53 S7        30.06F
WINCHESTER     CLEAR     73  54  49 SE7       30.05F
FRONT ROYAL*   CLEAR     72  57  60 S3        30.04F
LURAY*         CLEAR     77  57  50 SE3       30.05F
$$

VAZ048-049-060>072-079>083-210000-
CENTRAL AND SOUTH CENTRAL VIRGINIA...AND NORTH CENTRAL NORTH CAROLINA

CITY           SKY/WX    TMP DP  RH WIND       PRES   REMARKS
RICHMOND       MOCLDY    74  62  66 E8        30.07S
CHESTERFIELD*  PTCLDY    75  55  50 E5        30.08S
PETERSBURG*    PTCLDY    74  59  58 E6        30.07S
HANOVER        PTCLDY    73  63  70 VRB3      30.09R
TAPPAHANNOCK*  PTCLDY    72  60  67 E3        30.09S
CHARLOTTSVILLE CLEAR     74  55  51 S3        30.05F
ORANGE*        CLEAR     75  55  50 CALM      30.07F
LOUISA*        CLEAR     72  61  68 CALM      30.05F
FARMVILLE*     PTCLDY    73  55  53 CALM      30.04S
CREWE*         PTCLDY    70  62  77 CALM      30.05F
FORT PICKETT*  PTCLDY    72  63  73 CALM      30.06S
LUNENBURG*     PTCLDY    74  63  69 CALM      30.06S
SOUTH HILL*    PTCLDY    73  64  73 CALM      30.11S
LAWRENCEVILLE* PTCLDY    72  64  77 CALM      30.06S
ROANOKE RAPIDS PTCLDY    72  63  73 NE5       30.04S
RALEIGH        MOCLDY    74  59  59 NE7       30.04S
$$

VAZ088>098-210000-
SOUTHEAST VIRGINIA

CITY           SKY/WX    TMP DP  RH WIND       PRES   REMARKS
NORFOLK        CLOUDY    72  66  81 NE10      30.05F
VIRGINIA BEACH CLOUDY    72  67  84 NE6       30.04F
NORFOLK NAVAL  MOCLDY    73  66  78 NE12      30.07F
WEST POINT*    MOCLDY    73  64  73 CALM      30.09S
NEWPORT NEWS   MOCLDY    75  66  73 E10       30.06F
LANGLEY AFB    CLOUDY    72  68  87 E12       30.05F
FORT EUSTIS    MOCLDY    73  60  64 VRB5      30.04F
WILLIAMSBURG*  MOCLDY    75  66  73 CALM      30.07F
HR EXEC AP*    CLOUDY    72  64  78 NE6       30.07F
FRANKLIN*      MOCLDY    72  66  83 E8        30.05F
WAKEFIELD      MOCLDY    73  65  75 VRB6      30.06F
$$

VAZ020-022-025-037-045-210000-
WEST CENTRAL AND SOUTHWEST VIRGINIA

CITY           SKY/WX    TMP DP  RH WIND       PRES   REMARKS
STAUNTON*      CLEAR     75  54  48 S5        30.08F
HOT SPRINGS VA CLEAR     59  43  54 S5        30.18F
LYNCHBURG      CLEAR     68  61  78 W3        30.08F
DANVILLE       CLEAR     73  63  70 NE3       30.06F
SOUTH BOSTON*  NOT AVBL
MARTINSVILLE   CLEAR     69  63  80 CALM      30.09F
ROANOKE        PTCLDY    72  57  59 SE9       30.09F
BLACKSBURG     CLEAR     70  63  78 SE5       30.12F
DUBLIN*        CLEAR     73  59  61 CALM      30.11F
MARION*        CLEAR     71  58  64 CALM      30.13F
HILLSVILLE*    CLEAR     67  57  71 S3        30.12F
RICHLANDS*     CLEAR     76  55  49 CALM      30.11S
WISE*          CLEAR     72  55  56 SW3       30.12F
ABINGDON*      CLEAR     76  59  55 CALM      30.08F
$$

MDZ021>025-VAZ099-100-210000-
SOUTHERN MARYLAND AND THE DELMARVA PENINSULA

CITY           SKY/WX    TMP DP  RH WIND       PRES   REMARKS
PATUXENT RIVER PTCLDY    73  59  61 E9        30.08S
BAY BRIDGE APT   N/A     73  59  60 CALM      30.07F
LEONARDTOWN    PTCLDY    72  59  64 SE3       30.10S
DOVER          CLEAR     70  64  81 SE6       30.09F
GEORGETOWN     PTCLDY    71  63  75 E9        30.11S
EASTON         CLEAR     75  63  64 CALM      30.12F
CAMBRIDGE      PTCLDY    73  63  68 SE5       30.08S
SALISBURY      MOCLDY    73  63  70 E5        30.09S
OCEAN CITY     MOCLDY    71  66  84 E12       30.08F
WALLOPS ISLAND CLOUDY    72  68  87 E13       30.09S
ACCOMACK*      CLOUDY    70  64  83 E7        30.07F
$$

NCZ012>017-030>032-210000-
EASTERN NORTH CAROLINA

CITY           SKY/WX    TMP DP  RH WIND       PRES   REMARKS
ELIZABETH CITY CLOUDY    72  68  87 NE14      30.03F
AHOSKIE*       PTCLDY    72  65  79 N5        30.05S
EDENTON*       CLOUDY    71  68  88 NE6       30.02F
CURRITUCK*     CLOUDY    72  67  84 NE7       30.04F
KILL DEVIL HLS CLOUDY    73  71  93 NE9       30.01S
MANTEO         CLOUDY    73  70  93 NE10      30.02S
CAPE HATTERAS  LGT RAIN  71  71 100 SE12      29.99F
TARBORO*       CLOUDY    74  65  74 NE5       30.04S
GOLDSBORO      CLOUDY    75  71  86 NE3       30.00S
WASHINGTON     CLOUDY    72  68  88 NE6       30.01F
GREENVILLE     CLOUDY    73  68  83 NE8       30.04S
NEW BERN       LGT RAIN  74  68  81 NE9       30.00S
WILMINGTON     CLOUDY    74  69  85 NE13      29.95F
$$

VAZ048-210000-
ELSEWHERE

CITY           SKY/WX    TMP DP  RH WIND       PRES   REMARKS
HARRISBURG PA  PTCLDY    75  55  49 S12       30.04F
BALTIMORE      PTCLDY    73  59  61 CALM      30.07F
ANNAPOLIS      CLEAR     73  58  59 S5        30.07F
ANDREWS AFB    CLEAR     72  61  68 E3        30.08F
WILMINGTON DE  CLEAR     72  62  71 S10       30.10F
PHILADELPHIA   PTCLDY    73  57  57 SE7       30.10F
WILDWOOD NJ*   MOCLDY    70  61  73 SE9       30.13S
ATLANTIC CITY  PTCLDY    70  63  78 SE8       30.12F
HENDERSON NC   MOCLDY    71  58  64 CALM      30.06S
GREENSBORO     MOCLDY    75  58  55 NE7       30.05F
ROCKY MOUNT    LGT RAIN  73  66  78 NE8G20    30.03S
FAYETTEVILLE   CLOUDY    74  62  66 NE8       30.00S
CHARLOTTE      MOCLDY    77  57  50 N5        30.04F
$$

VAZ100-210000-
MARINE

STATION/POSITION TIME  TEMP    WIND        PRES    WAVE   SWELL
                       AIR SEA DIR/SP/G            HT/PER HT/PER
                 (UTC) (F)     (DEG/KT/KT) (MB)    (FT/S) (FT/S)
44066 TX TWR #4  2300   73 72  140/ 14/ 17 1020.3F   4/10   3/10
CAPE MAY NJ      2300   70 75  100/  8/ 11 1019.1F
LEWES DE         2300   70 72  130/  6/  9 1019.3S
15NM E FENWICK I 2300   71 72              1018.0F   6/ 8
OCEAN-CITY-INLET 2300   71 72  120/ 10/ 14 1018.4F
WACHAPREAGUE VA  2300   71 74   70/ 13/ 16 1018.4S
THOMAS POINT MD  2300   74 74  170/  7/  7 1019.1F
GOOSES REEF MD   2300   75     200/  4/  6 1018.9F
COVE POINT MD    2300   74     170/ 12/ 13 1018.5S
SOLOMONS ISLAND  2300      77                N/A
BISHOPS HEAD MD  2300   72 74   70/  5/  7 1018.3R
PINEY POINT MD   2300          130/ 10/ 11   N/A
POTOMAC MD       2300   73     110/ 10/ 12 1017.9R
CAMBRIDGE MD     2300   74 74  110/  6/  8 1018.2F
LEWISETTA VA     2300   73 76  130/ 11/ 13 1018.1F
RAPPAHANNOCK LGT 2300           70/ 16/ 18 1018.4F
STINGRAY PT      2300   73     100/ 10/ 12   N/A
YORK RVR RNG VA  2300   72      80/ 12/ 14 1017.5F
YORKTOWN VA      2300   72 76   80/ 12/ 13 1017.8F
JAMESTOWN VA     2300   71     110/  6/ 10   N/A
DOMINION TERM VA 2300   72      60/  9/ 13 1017.9F
KIPTOPEKE VA     2300      78   70/  7/ 12   N/A
CHES BAY BRIDGE  2300   72 75   40/ 14/ 15 1017.2S
CAPE HENRY VA    2300   71      60/ 13/ 14 1016.4S
CHESAPEAKE LGHT  2200   71      70/ 21/ 22 1018.0F
WILLOUBY STN VA  2300   72      50/  9/ 11 1016.5F
S CRANEY ISL VA  2300           10/ 11/ 13 1017.3F
CAPE HENRY BUOY  2300      75                N/A     6/ 7   2/11
1ST LANDING BUOY 2300   72      50/ 14/ 16 1017.3F
CAPE CHARLES BUO 2300      75                N/A     6/ 8   5/ 8
OFFSHORE WE BUOY 2300      74                N/A     8/ 9   5/ 9
64NM E OF VA BCH 2300   75 77   40/ 14/ 16 1016.3F   8/ 9   7/ 9
DUCK PIER NC     2300   73 74   50/ 19/ 21 1015.8S
44100 DUCK FRF   2300      74                N/A     7/ 8   2/11
44056 DUCK FRF   2300                        N/A     7/ 8   2/11
OREGON INLET NC  2300   72 73   70/  7/ 12 1016.0F
HATTERAS NC      2300   71 73  100/  4/  7 1016.1F
DIAMOND SHLS NC  2300   76     100/ 17/ 21 1014.4F   8/10   5/10
CAPE LOOKOUT NC  2200   73      50/ 16/ 17 1015.0F
$$



USA.gov is the U.S. government's official web portal to all federal, state and local government web resources and services.